TimeCST,TemperatureF,Dew PointF,Humidity,Sea Level PressureIn,VisibilityMPH,Wind Direction,Wind SpeedMPH,Gust SpeedMPH,PrecipitationIn,Events,Conditions,WindDirDegrees,DateUTC
12:10 AM,24.1,21.0,88,29.81,8.0,WNW,4.6,-,N/A,,Overcast,290,2013-02-22 06:10:00
12:53 AM,24.1,21.0,88,29.86,3.0,West,5.8,-,0.00,Snow,Light Snow,260,2013-02-22 06:53:00
1:53 AM,24.1,19.9,84,29.88,8.0,West,9.2,-,0.00,,Overcast,280,2013-02-22 07:53:00
2:53 AM,23.0,19.0,85,29.88,9.0,West,6.9,-,N/A,,Overcast,280,2013-02-22 08:53:00
3:24 AM,24.1,19.0,81,29.86,9.0,WSW,6.9,-,N/A,,Overcast,250,2013-02-22 09:24:00
3:53 AM,23.0,19.0,85,29.91,9.0,West,10.4,-,N/A,,Overcast,270,2013-02-22 09:53:00
4:08 AM,23.0,18.0,81,29.88,9.0,West,11.5,-,N/A,,Mostly Cloudy,270,2013-02-22 10:08:00
4:31 AM,23.0,18.0,81,29.89,8.0,West,10.4,-,N/A,,Mostly Cloudy,260,2013-02-22 10:31:00
4:53 AM,21.9,17.1,82,29.93,8.0,West,13.8,-,N/A,,Overcast,280,2013-02-22 10:53:00
5:46 AM,21.0,16.0,81,29.92,8.0,West,11.5,19.6,N/A,,Overcast,270,2013-02-22 11:46:00
5:53 AM,21.0,16.0,81,29.95,8.0,West,12.7,-,N/A,,Overcast,260,2013-02-22 11:53:00
6:43 AM,19.9,15.1,81,29.94,9.0,West,13.8,-,N/A,,Mostly Cloudy,260,2013-02-22 12:43:00
6:53 AM,19.0,14.0,81,29.97,9.0,West,13.8,-,N/A,,Overcast,280,2013-02-22 12:53:00
7:53 AM,18.0,12.9,81,30.02,9.0,West,13.8,-,N/A,,Overcast,270,2013-02-22 13:53:00
8:28 AM,19.0,12.9,77,30.00,10.0,West,13.8,19.6,N/A,,Scattered Clouds,280,2013-02-22 14:28:00
8:53 AM,19.0,12.9,77,30.03,10.0,WNW,11.5,-,N/A,,Clear,290,2013-02-22 14:53:00
9:53 AM,21.0,15.1,78,30.06,10.0,West,12.7,-,N/A,,Partly Cloudy,280,2013-02-22 15:53:00
10:53 AM,21.9,16.0,78,30.09,10.0,West,11.5,-,N/A,,Partly Cloudy,270,2013-02-22 16:53:00
11:53 AM,24.1,16.0,71,30.10,10.0,West,11.5,-,N/A,,Clear,260,2013-02-22 17:53:00
12:53 PM,26.1,16.0,66,30.11,10.0,West,13.8,-,N/A,,Clear,260,2013-02-22 18:53:00
1:53 PM,27.0,16.0,63,30.09,10.0,West,13.8,-,N/A,,Clear,270,2013-02-22 19:53:00
2:53 PM,27.0,17.1,66,30.08,10.0,West,12.7,-,N/A,,Clear,260,2013-02-22 20:53:00
3:53 PM,27.0,15.1,61,30.08,10.0,West,11.5,-,N/A,,Clear,260,2013-02-22 21:53:00
4:53 PM,26.1,15.1,63,30.09,10.0,West,11.5,-,N/A,,Clear,270,2013-02-22 22:53:00
5:53 PM,25.0,15.1,66,30.10,10.0,West,6.9,-,N/A,,Clear,260,2013-02-22 23:53:00
6:53 PM,24.1,14.0,65,30.12,10.0,West,5.8,-,N/A,,Clear,260,2013-02-23 00:53:00
7:53 PM,21.9,14.0,72,30.12,10.0,West,3.5,-,N/A,,Clear,260,2013-02-23 01:53:00
8:53 PM,19.0,14.0,81,30.13,9.0,WNW,3.5,-,N/A,,Clear,290,2013-02-23 02:53:00
9:53 PM,19.0,12.0,74,30.13,10.0,West,6.9,-,N/A,,Clear,270,2013-02-23 03:53:00
10:53 PM,18.0,12.0,78,30.13,9.0,West,4.6,-,N/A,,Clear,260,2013-02-23 04:53:00
11:53 PM,16.0,10.9,81,30.12,8.0,West,5.8,-,N/A,,Clear,260,2013-02-23 05:53:00